| time (UTC) | temp F | wind direction | speed knots | gust knots | rain 1hr in | rain 24hr in | rain mn in | humidity % | barometer mb |
| 20260507051610 | 46 | 155 | 2.6 | 4.3 | 0.00 | 0.28 | 0.00 | 90 | 1012.0 |
| 20260507050002 | 46 | 158 | 2.6 | 3.5 | 0.00 | 0.28 | 0.00 | 90 | 1011.8 |
| 20260507044601 | 46 | 251 | 0.9 | 2.6 | 0.00 | 0.28 | 0.00 | 91 | 1011.7 |
| 20260507043008 | 46 | 117 | 1.7 | 3.5 | 0.00 | 0.28 | 0.00 | 91 | 1011.3 |
| 20260507041602 | 46 | 129 | 0.9 | 2.6 | 0.00 | 0.28 | 0.00 | 91 | 1011.4 |
| 20260507040003 | 46 | 136 | 0.9 | 3.5 | 0.00 | 0.28 | 0.00 | 90 | 1011.2 |
| 20260507034503 | 46 | 159 | 1.7 | 3.5 | 0.00 | 0.28 | 0.00 | 90 | 1011.2 |
| 20260507033112 | 46 | 142 | 0.9 | 2.6 | 0.00 | 0.28 | 0.00 | 89 | 1011.1 |
| 20260507031502 | 46 | 136 | 1.7 | 3.5 | 0.00 | 0.28 | 0.00 | 88 | 1011.0 |
| 20260507024508 | 46 | 109 | 0.0 | 1.7 | 0.00 | 0.28 | 0.00 | 89 | 1010.9 |
| 20260507023102 | 47 | 109 | 0.0 | 0.0 | 0.00 | 0.28 | 0.00 | 89 | 1010.8 |
| 20260507021502 | 47 | 109 | 0.0 | 2.6 | 0.00 | 0.28 | 0.00 | 90 | 1010.9 |
| 20260507020115 | 46 | 55 | 0.0 | 2.6 | 0.00 | 0.28 | 0.00 | 91 | 1010.7 |
| 20260507014502 | 46 | 63 | 0.0 | 4.3 | 0.00 | 0.28 | 0.00 | 92 | 1010.5 |
| 20260507013102 | 46 | 87 | 0.0 | 1.7 | 0.00 | 0.28 | 0.00 | 92 | 1010.5 |
| 20260507011509 | 47 | 82 | 0.0 | 3.5 | 0.00 | 0.28 | 0.00 | 92 | 1010.5 |
| 20260507010104 | 47 | 138 | 0.9 | 2.6 | 0.00 | 0.28 | 0.00 | 92 | 1010.4 |
| 20260507004504 | 47 | 141 | 1.7 | 4.3 | 0.00 | 0.28 | 0.00 | 91 | 1010.2 |
| 20260507003101 | 47 | 139 | 0.0 | 1.7 | 0.00 | 0.28 | 0.00 | 91 | 1010.3 |
| 20260507001504 | 47 | 138 | 0.9 | 2.6 | 0.00 | 0.28 | 0.00 | 91 | 1010.3 |
| 20260506234502 | 47 | 121 | 0.0 | 0.0 | 0.00 | 0.28 | 0.00 | 91 | 1010.4 |
| 20260506233112 | 47 | 121 | 0.0 | 1.7 | 0.00 | 0.28 | 0.00 | 91 | 1010.3 |
| 20260506231503 | 47 | 80 | 1.7 | 3.5 | 0.00 | 0.28 | 0.00 | 91 | 1010.3 |
| 20260506230103 | 47 | 132 | 0.9 | 4.3 | 0.00 | 0.28 | 0.00 | 91 | 1010.1 |
| 20260506224502 | 47 | 154 | 0.0 | 1.7 | 0.00 | 0.28 | 0.00 | 91 | 1010.2 |
| 20260506223106 | 47 | 153 | 0.0 | 0.0 | 0.00 | 0.28 | 0.00 | 91 | 1010.2 |
| 20260506221612 | 47 | 153 | 0.0 | 2.6 | 0.00 | 0.28 | 0.00 | 91 | 1010.1 |
| 20260506220004 | 47 | 170 | 1.7 | 7.0 | 0.00 | 0.28 | 0.00 | 91 | 1010.0 |
| 20260506214603 | 47 | 261 | 0.0 | 1.7 | 0.00 | 0.28 | 0.28 | 92 | 1010.0 |
| 20260506213002 | 47 | 115 | 2.6 | 4.3 | 0.00 | 0.28 | 0.28 | 92 | 1009.9 |
| 20260506211601 | 46 | 151 | 0.0 | 2.6 | 0.00 | 0.28 | 0.28 | 92 | 1010.0 |
| 20260506210003 | 46 | 190 | 0.9 | 2.6 | 0.00 | 0.28 | 0.28 | 92 | 1009.9 |
| 20260506204604 | 46 | 210 | 0.0 | 2.6 | 0.00 | 0.28 | 0.28 | 92 | 1009.9 |
| 20260506203002 | 46 | 168 | 0.0 | 3.5 | 0.00 | 0.28 | 0.28 | 92 | 1009.8 |
| 20260506201603 | 46 | 176 | 0.0 | 3.5 | 0.00 | 0.28 | 0.28 | 91 | 1009.7 |
| 20260506200002 | 46 | 170 | 0.0 | 2.6 | 0.00 | 0.28 | 0.28 | 91 | 1009.6 |
| 20260506194603 | 46 | 130 | 0.9 | 3.5 | 0.00 | 0.28 | 0.28 | 91 | 1009.3 |
| 20260506193002 | 46 | 115 | 0.0 | 2.6 | 0.00 | 0.28 | 0.28 | 90 | 1009.0 |
| 20260506191602 | 47 | 118 | 0.0 | 2.6 | 0.00 | 0.28 | 0.28 | 90 | 1008.9 |
| 20260506190007 | 47 | 119 | 0.0 | 1.7 | 0.00 | 0.28 | 0.28 | 90 | 1008.7 |
| 20260506184611 | 47 | 119 | 0.0 | 3.5 | 0.00 | 0.28 | 0.28 | 89 | 1008.5 |
| 20260506183007 | 47 | 31 | 1.7 | 2.6 | 0.00 | 0.28 | 0.28 | 89 | 1008.2 |
| 20260506181624 | 48 | 155 | 0.0 | 2.6 | 0.00 | 0.28 | 0.28 | 88 | 1008.1 |
| 20260506180003 | 48 | 285 | 0.0 | 0.0 | 0.00 | 0.28 | 0.28 | 88 | 1008.0 |
| 20260506174602 | 48 | 284 | 0.0 | 2.6 | 0.02 | 0.28 | 0.28 | 88 | 1007.9 |
| 20260506173003 | 48 | 128 | 0.9 | 4.3 | 0.05 | 0.28 | 0.28 | 88 | 1007.6 |
| 20260506171606 | 47 | 171 | 2.6 | 7.0 | 0.06 | 0.28 | 0.28 | 88 | 1007.5 |
| 20260506170004 | 47 | 153 | 0.9 | 7.8 | 0.13 | 0.28 | 0.28 | 87 | 1007.2 |
| 20260506164614 | 48 | 168 | 2.6 | 7.0 | 0.10 | 0.26 | 0.26 | 86 | 1007.4 |
| 20260506163002 | 48 | 159 | 2.6 | 5.2 | 0.07 | 0.23 | 0.23 | 85 | 1007.7 |
| 20260506161503 | 49 | 152 | 6.1 | 9.6 | 0.06 | 0.21 | 0.21 | 82 | 1007.4 |
| 20260506160109 | 51 | 185 | 4.3 | 7.8 | 0.00 | 0.16 | 0.16 | 75 | 1007.4 |
| 20260506154605 | 51 | 92 | 4.3 | 11.3 | 0.00 | 0.16 | 0.16 | 73 | 1006.7 |
| 20260506153002 | 52 | 139 | 5.2 | 15.6 | 0.00 | 0.16 | 0.16 | 71 | 1006.3 |
| 20260506151602 | 52 | 360 | 7.0 | 18.2 | 0.00 | 0.16 | 0.16 | 72 | 1005.6 |
| 20260506150104 | 55 | 360 | 10.4 | 21.7 | 0.00 | 0.16 | 0.16 | 71 | 1005.1 |
| 20260506144506 | 59 | 327 | 1.7 | 5.2 | 0.00 | 0.16 | 0.16 | 68 | 1004.6 |
| 20260506143104 | 58 | 109 | 0.9 | 3.5 | 0.00 | 0.16 | 0.16 | 68 | 1004.4 |
| 20260506141502 | 57 | 360 | 0.9 | 2.6 | 0.00 | 0.16 | 0.16 | 74 | 1004.4 |
| 20260506140005 | 57 | 20 | 1.7 | 4.3 | 0.00 | 0.16 | 0.16 | 74 | 1004.5 |
| 20260506134603 | 56 | 309 | 1.7 | 4.3 | 0.00 | 0.16 | 0.16 | 78 | 1004.4 |
| 20260506133002 | 54 | 316 | 1.7 | 3.5 | 0.01 | 0.16 | 0.16 | 84 | 1004.7 |
| 20260506131602 | 52 | 360 | 0.0 | 2.6 | 0.01 | 0.16 | 0.16 | 87 | 1004.7 |
| 20260506130004 | 50 | 103 | 0.9 | 6.1 | 0.16 | 0.16 | 0.16 | 86 | 1005.1 |
| 20260506124609 | 49 | 55 | 3.5 | 7.8 | 0.16 | 0.16 | 0.16 | 86 | 1005.1 |
| 20260506123003 | 50 | 66 | 3.5 | 7.0 | 0.15 | 0.15 | 0.15 | 85 | 1005.0 |
| 20260506121604 | 50 | 328 | 0.9 | 10.4 | 0.15 | 0.15 | 0.15 | 82 | 1004.7 |
| 20260506120008 | 57 | 360 | 6.1 | 11.3 | 0.00 | 0.00 | 0.00 | 71 | 1004.2 |
| 20260506114614 | 58 | 276 | 7.0 | 11.3 | 0.00 | 0.00 | 0.00 | 69 | 1003.4 |
| 20260506113008 | 59 | 293 | 5.2 | 8.7 | 0.00 | 0.00 | 0.00 | 67 | 1003.2 |
| 20260506111602 | 59 | 321 | 4.3 | 10.4 | 0.00 | 0.00 | 0.00 | 66 | 1003.3 |
| 20260506110003 | 59 | 317 | 2.6 | 9.6 | 0.00 | 0.00 | 0.00 | 66 | 1003.6 |
| 20260506104606 | 59 | 300 | 6.1 | 10.4 | 0.00 | 0.00 | 0.00 | 66 | 1003.7 |
| 20260506103006 | 59 | 5 | 2.6 | 12.2 | 0.00 | 0.00 | 0.00 | 66 | 1003.6 |
| 20260506101604 | 59 | 304 | 4.3 | 9.6 | 0.00 | 0.00 | 0.00 | 66 | 1003.9 |
| 20260506094601 | 58 | 360 | 1.7 | 7.8 | 0.00 | 0.00 | 0.00 | 68 | 1004.2 |
| 20260506093003 | 57 | 328 | 4.3 | 7.8 | 0.00 | 0.00 | 0.00 | 69 | 1004.4 |
| 20260506091603 | 56 | 360 | 1.7 | 7.0 | 0.00 | 0.00 | 0.00 | 71 | 1004.6 |
| 20260506090003 | 55 | 360 | 1.7 | 6.1 | 0.00 | 0.00 | 0.00 | 74 | 1004.5 |
| 20260506084610 | 54 | 360 | 3.5 | 7.0 | 0.00 | 0.00 | 0.00 | 75 | 1004.6 |
| 20260506083002 | 53 | 27 | 1.7 | 3.5 | 0.00 | 0.00 | 0.00 | 76 | 1004.7 |
| 20260506081603 | 53 | 14 | 0.9 | 4.3 | 0.00 | 0.00 | 0.00 | 78 | 1004.8 |
| 20260506073003 | 51 | 255 | 0.9 | 2.6 | 0.00 | 0.00 | 0.00 | 80 | 1004.7 |
| 20260506071607 | 50 | 170 | 0.0 | 1.7 | 0.00 | 0.00 | 0.00 | 82 | 1004.6 |
| 20260506061604 | 48 | 178 | 0.0 | 2.6 | 0.00 | 0.00 | 0.00 | 87 | 1005.3 |